{"data":{"norad_id":53201,"intl_designator":"2022-084N","name":"STARLINK-4405","alt_names":[],"object_type":"PAYLOAD","status":"ACTIVE","operator":null,"country":"US","launch_date":"2022-07-22","launch_site_code":"AFWTR","launch_vehicle":null,"mission":null,"orbit_class":"UNKNOWN","rcs_meters":null,"size_class":null,"mass_kg":null,"dimensions":null,"purposes":["comms"],"wikipedia_slug":null,"has_3d_model":false,"image_url":null,"decayed_at":null,"tle_current":{"epoch":"2026-05-25T06:00:02.000160Z","epoch_age_seconds":46594,"freshness":"FRESH","line1":"1 53201U 22084N   26145.25002315  .00001270  00000+0  58480-4 0  9991","line2":"2 53201  97.6003 207.1645 0001744  62.9205 212.1733 15.22198148  5682","mean_motion":15.22198148,"eccentricity":0.0001744,"inclination_deg":97.6003,"raan_deg":207.1645,"arg_perigee_deg":62.9205,"mean_anomaly_deg":212.1733,"bstar":5.848e-5,"rev_number":568,"period_min":94.600036262822,"perigee_km":498.01234925841,"apogee_km":500.41116850551,"semimajor_km":6877.348758882,"source":"CELESTRAK","updated_at":"2026-05-25T13:38:17.351655Z"}}}